Weather History for Saginaw, MI

Change the Weather History Date:

Monday, April 23, 2012

  Actual Average Record
Temperature  
Mean Temperature 46 °F 49 °F  
Max Temperature 59 °F 60 °F 75 °F (2001)
Min Temperature 36 °F 39 °F 28 °F (2002)
Degree Days  
Heating Degree Days 18    
Month to date heating degree days  
Since 1 July heating degree days  
Cooling Degree Days 0    
Month to date cooling degree days  
Year to date cooling degree days  
Moisture  
Dew Point 17 °F    
Average Humidity 34    
Maximum Humidity 57    
Minimum Humidity 16    
Precipitation  
Precipitation 0.00 in 0.10 in 0.45 in (2001)
Month to date precipitation 2.19  
Year to date precipitation 7.57  
Snow  
Snow 0.00 in - - ()
Month to date snowfall  
Since 1 July snowfall  
Snow Depth -    
Sea Level Pressure  
Sea Level Pressure 29.81 in    
Wind  
Wind Speed 15 mph (NNW)    
Max Wind Speed 30 mph    
Max Gust Speed 36 mph    
Visibility 10 miles    
Events      
T = Trace of Precipitation, MM = Missing Value Source: NWS Daily Summary

Daily Weather History Graph

Daily Weather History Graph

Search for Another Location

Airport:

Trip Planner

Search our weather history database for the weather conditions in past years. The results will help you decide how hot, cold, wet, or windy it might be!

Date:

Astronomy

Apr. 23, 2012 Rise Set
Actual Time 6:40 AM EDT 8:29 PM EDT
Civil Twilight 6:09 AM EDT 9:00 PM EDT
Nautical Twilight 5:32 AM EDT 9:37 PM EDT
Astronomical Twilight 4:51 AM EDT 10:18 PM EDT
Moon 7:46 AM EDT (4/23) 11:03 PM EDT (4/23)
Length of Visible Light 14h 50m
Length of Day
13h 49m
Waxing Crescent, 5% of the Moon is Illuminated
Apr 23
Waxing Crescent
Apr 29
First Quarter
May 5
Full
May 12
Last Quarter
May 20
New

Hourly Weather History & Observations

Time (EDT) Temp. Windchill Dew Point Humidity Pressure Visibility Wind Dir Wind Speed Gust Speed Precip Events Conditions
12:53 AM 37.0 °F 29.8 °F 21.9 °F 54% 30.01 in 10.0 mi North 10.4 mph - N/A   Clear
1:53 AM 37.0 °F 30.4 °F 21.9 °F 54% 29.98 in 10.0 mi North 9.2 mph - N/A   Clear
2:53 AM 37.0 °F 29.8 °F 23.0 °F 57% 29.96 in 10.0 mi North 10.4 mph - N/A   Clear
3:53 AM 37.0 °F 29.8 °F 23.0 °F 57% 29.95 in 10.0 mi NNW 10.4 mph - N/A   Clear
4:53 AM 36.0 °F 28.0 °F 21.9 °F 57% 29.95 in 10.0 mi North 11.5 mph - N/A   Clear
5:53 AM 36.0 °F 28.0 °F 21.0 °F 55% 29.94 in 10.0 mi NNW 11.5 mph - N/A   Clear
6:53 AM 36.0 °F 27.5 °F 21.0 °F 55% 29.93 in 10.0 mi North 12.7 mph - N/A   Clear
7:53 AM 39.0 °F 31.0 °F 21.0 °F 49% 29.92 in 10.0 mi NNW 13.8 mph - N/A   Clear
8:53 AM 43.0 °F 35.1 °F 21.0 °F 42% 29.91 in 10.0 mi North 17.3 mph - N/A   Clear
9:53 AM 46.9 °F - 16.0 °F 29% 29.88 in 10.0 mi North 19.6 mph - N/A   Clear
10:53 AM 50.0 °F - 12.9 °F 23% 29.86 in 10.0 mi North 23.0 mph 34.5 mph N/A   Clear
11:53 AM 52.0 °F - 14.0 °F 22% 29.83 in 10.0 mi North 25.3 mph 31.1 mph N/A   Clear
12:53 PM 53.1 °F - 12.0 °F 20% 29.81 in 10.0 mi North 18.4 mph 32.2 mph N/A   Clear
1:53 PM 55.0 °F - 12.9 °F 19% 29.77 in 10.0 mi North 18.4 mph 29.9 mph N/A   Clear
2:53 PM 57.0 °F - 12.9 °F 18% 29.74 in 10.0 mi North 20.7 mph 34.5 mph N/A   Clear
3:53 PM 57.9 °F - 10.9 °F 16% 29.71 in 10.0 mi North 24.2 mph 33.4 mph N/A   Clear
4:53 PM 57.9 °F - 16.0 °F 19% 29.69 in 10.0 mi NNW 21.9 mph 28.8 mph N/A   Clear
5:53 PM 57.0 °F - 12.9 °F 18% 29.68 in 10.0 mi NW 29.9 mph 35.7 mph N/A   Clear
6:53 PM 54.0 °F - 10.0 °F 17% 29.68 in 10.0 mi NW 24.2 mph 35.7 mph N/A   Clear
7:53 PM 53.1 °F - 12.9 °F 20% 29.68 in 10.0 mi NW 20.7 mph - N/A   Clear
8:53 PM 50.0 °F - 14.0 °F 24% 29.67 in 10.0 mi NW 20.7 mph 26.5 mph N/A   Clear
9:53 PM 48.0 °F - 16.0 °F 28% 29.66 in 10.0 mi NW 17.3 mph - N/A   Clear
10:53 PM 46.0 °F 39.0 °F 16.0 °F 30% 29.65 in 10.0 mi NW 17.3 mph 23.0 mph N/A   Clear
11:53 PM 45.0 °F 37.4 °F 18.0 °F 34% 29.62 in 10.0 mi NW 18.4 mph - N/A   Clear